Hauptseite
METAR-TAF:

METAR-TAF

Flughäfen :

Hohenfels, Deutschland

Breite: 49-13N, Länge: 011-50E, Höhe: 442 m

Beobachtung

Neuester Wetterbericht von vor 15 Stunden und 3 Minuten, um 06:58 UTC
Wind 7 kt aus Ost
Temperatur 1°C
Luftfeuchtigkeit 100%
Luftdruck 1006 hPa
Sichtweite: 9000 m
Geschlossene Wolkendecke in der Höhe von 500 ft
feuchter Dunst

METAR: ETIH 140658Z AUTO 10007KT 9000 BR OVC005 01/01 A2971 RMK AO2 SLP081 $

Zeit: 23:01 (22:01 UTC)


TAF: fehlend

Wetterbeobachtungen und Prognosen von mehr als 4000 Flughäfen (METAR und TAF Bericht).

Die verfügbaren Stationen werden durch gelbe und rote Markierungen auf der Karte dargestellt.

Führen Sie die Maus auf sie, um den Namen der Station zu sehen.

Darauf klicken, um die Beobachtung von Wetterbeobachtungen und Prognosen zu sehen.

Um die Karte zu ändern : klicken Sie auf den grünen Tasten mit einem schwarzen Kreuz Zum Vergrößern, auf den grünen Button mit einem Gedankenstrich zu verkleinern, oder auf die grünen Pfeile für benachbarte Karten.


METAR-TAF: